Location: Shepherdstown, WV
(39.4326°N, 77.8042°W)
Time: 05:49:24
(UTC-04:00)

SR - Pass Details

Date: 06 August 2021
Orbit: 581 x 874 km, 66.7° (Epoch: 24 September)

Event Time Altitude Azimuth Distance (km) Brightness Sun altitude
Rises 07:20:02 0° 252° (WSW) 3,426 ? 11.0°
Reaches altitude 10° 07:23:19 10° 270° (W) 2,461 ? 11.6°
Maximum altitude 07:27:15 19° 314° (NW) 1,872 ? 12.3°
Drops below altitude 10° 07:31:02 10° 358° (N) 2,358 ? 13.1°
Sets 07:34:07 0° 16° (NNE) 3,232 ? 13.6°
